Regional Weather Roundup
Issued by NWS Cleveland, OH

Home | Current Version | Previous Version | Graphics & Text | Print | Product List | Glossary On
Versions: 1 2 3 4 5 6 7 8 9 10 11 12 13 14 15 16 17 18 19 20 21 22 23 24 25 26 27 28 29 30 31 32 33 34 35 36 37 38 39 40 41 42 43 44 45 46 47 48 49 50
897
ASUS41 KCLE 052102
RWRCLE
OHIO REGIONAL WEATHER ROUNDUP
NATIONAL WEATHER SERVICE CLEVELAND, OH
400 PM EST FRI FEB 05 2016

NOTE: "FAIR" INDICATES FEW OR NO CLOUDS BELOW 12,000 FEET WITH NO
SIGNIFICANT WEATHER AND/OR OBSTRUCTIONS TO VISIBILITY.

OHZ001>008-015>018-024>027-034-035-043-044-052200-
   NORTHWEST OHIO

CITY           SKY/WX    TMP DP  RH WIND       PRES   REMARKS
DEFIANCE       CLOUDY    39  22  50 SW10      30.29S
FINDLAY        CLOUDY    39  22  50 SW14      30.30S
TOLEDO EXPRESS CLOUDY    39  19  44 SW8       30.29S
TOLEDO EXEC    CLOUDY    40  20  44 SW13      30.31S
LIMA           CLOUDY    38  21  50 S13       30.30S
$$

OHZ009>014-019>023-028>033-038-089-052200-
   NORTHEAST OHIO

CITY           SKY/WX    TMP DP  RH WIND       PRES   REMARKS
CLE-HOPKINS    MOSUNNY   36  19  50 S9        30.35S
CLE-LAKEFRONT  SUNNY     36  23  59 N5        30.34R
CUY CO. ARPT   MOSUNNY   37  21  52 NW10      30.34R
LORAIN-ELYRIA  MOSUNNY   37  21  52 W7        30.33R
ASHTABULA      SUNNY     32  16  51 W8        30.34R WCI  25
AKRON-CANTON   MOSUNNY   35  17  47 W10       30.32S WCI  27
WOOSTER        MOSUNNY   36  19  50 VRB3      30.33R
MANSFIELD      SUNNY     35  19  52 SW7       30.31R WCI  29
YOUNGSTOWN     PTSUNNY   32  17  54 W5        30.32R WCI  27
$$

OHZ042-051>053-060>062-070>072-077>081-052200-
  SOUTHWEST OHIO

CITY           SKY/WX    TMP DP  RH WIND       PRES   REMARKS
CINC-COVINGTON MOSUNNY   42  19  39 S12       30.34F
CINC-LUNKEN    SUNNY     42  17  36 SW13      30.37S
HAMILTON       SUNNY     43  18  36 S7        30.36R
DAYTON         PTSUNNY   39  18  42 S9G20     30.33R
WRIGHT-PAT AFB SUNNY     41  15  35 S13       30.33S
DAYTON GENERAL SUNNY     40  17  39 SW9       30.32S
WILMINGTON     SUNNY     38  20  48 S12       30.34S
$$

OHZ036-037-039>041-045>050-054>059-063>069-073>076-082>088-052200-
  CENTRAL AND SOUTHEAST OHIO

CITY           SKY/WX    TMP DP  RH WIND       PRES   REMARKS
COLUMBUS       MOSUNNY   38  16  40 S10       30.35S
OSU AIRPORT    MOSUNNY   39  18  42 SW10      30.34R
BOLTON FIELD   NOT AVBL
RICKENBACK AFB NOT AVBL
NEWARK         SUNNY     39  19  44 SW7       30.35R
MARION         MOSUNNY   38  19  46 S12       30.33R
LANCASTER      SUNNY     39  20  46 SW10      30.36S
ZANESVILLE     SUNNY     40  19  43 VRB5      30.35S
NEW PHILLY     MOSUNNY   37  17  44 W7        30.36R
$$




USA.gov is the U.S. government's official web portal to all federal, state and local government web resources and services.